Location: Saint Louis
(38.6272°N, 90.1978°W)
Time: 15:51:11
(UTC-05:00)

Tiangong 1 - Visible Passes

Search period start: 27 July 2017 00:00
Search period end: 06 August 2017 00:00
Orbit: 315 x 342 km, 42.8° (Epoch: 26 July)

Date Brightness Start Highest point End Pass type
(mag) Time Alt. Az. Time Alt. Az. Time Alt. Az.
27 Jul 1.6 04:45:29 25° SSW 04:46:35 38° SSE 04:49:11 10° E visible
28 Jul 0.7 05:02:31 17° WSW 05:04:28 85° NNW 05:07:15 10° ENE visible
29 Jul 3.1 03:48:26 20° E 03:48:26 20° E 03:49:33 10° E visible
29 Jul 1.6 05:19:47 10° W 05:22:27 45° NNW 05:25:08 10° ENE visible
30 Jul 1.4 04:05:20 53° ENE 04:05:20 53° ENE 04:07:33 10° ENE visible
31 Jul 1.4 04:22:12 40° NW 04:22:40 46° NNW 04:25:21 10° ENE visible
01 Aug 2.2 04:39:02 18° WNW 04:40:35 33° N 04:43:07 10° ENE visible
02 Aug 3.9 03:24:49 15° ENE 03:24:49 15° ENE 03:25:23 10° ENE visible
02 Aug 2.3 04:55:58 10° WNW 04:58:29 32° N 05:01:01 10° ENE visible
03 Aug 3.3 03:41:41 23° NE 03:41:41 23° NE 03:43:04 10° ENE visible
03 Aug 1.9 05:13:41 10° WNW 05:16:19 41° NNE 05:18:57 10° E visible
04 Aug 2.5 03:58:37 31° NNE 03:58:37 31° NNE 04:00:51 10° ENE visible
04 Aug 0.9 05:31:18 10° WNW 05:34:02 73° NNE 05:36:47 10° ESE visible
05 Aug 1.9 04:15:40 36° NNW 04:16:06 39° NNE 04:18:42 10° E visible
